PBO Station Position Time Series. Reference Frame : NAM14
Format Version,1.1.0
4-character ID,RDMC
Station name,MntcristiDOM2016
Begin Date, 2016-07-08
End Date, 2019-10-07
Release Date, 2019-10-08
Reference position, 19.8487405452 North Latitude, -71.6388566379 East Longitude, -18.88930 meters elevation,
Date, North (mm), East (mm), Vertical (mm), North Std. Deviation (mm), East Std. Deviation (mm),              Vertical Std. Deviation (mm), Quality,
2016-07-08,0.00, 0.00, 0.00, 1.64, 1.77, 7.66, repro,
2016-07-09,-0.68, -3.44, -13.91, 1.62, 1.74, 7.60, repro,
2016-07-10,-2.34, -1.94, -6.24, 1.63, 1.74, 7.64, repro,
2016-07-11,-0.48, -3.18, 0.06, 1.62, 1.76, 7.66, repro,
2016-07-12,0.52, -1.88, -8.53, 1.62, 1.81, 7.77, repro,
2016-07-13,-1.47, -0.99, -5.45, 1.62, 1.74, 7.67, repro,
2016-07-14,0.56, -3.01, -7.70, 1.61, 1.77, 7.63, repro,
2016-07-15,-0.88, -1.33, -3.61, 1.62, 1.75, 7.71, repro,
2016-07-16,-1.93, -1.42, -26.26, 1.72, 1.90, 8.09, repro,
2016-07-17,1.75, -0.48, -10.43, 1.69, 1.87, 8.09, repro,
2016-07-18,0.69, 0.48, -19.78, 1.63, 1.74, 7.66, repro,
2016-07-19,-0.86, -1.32, -10.34, 1.76, 1.86, 8.45, repro,
2016-07-20,-0.85, -3.94, -26.84, 1.68, 1.79, 8.12, repro,
2016-07-21,-0.44, -2.47, -16.54, 1.65, 1.77, 7.84, repro,
2016-07-22,0.03, -2.01, -7.97, 1.69, 1.83, 8.03, repro,
2016-07-23,-0.12, -4.07, -6.35, 1.62, 1.74, 7.61, repro,
2016-07-24,-0.92, -3.47, -3.78, 1.67, 1.82, 7.98, repro,
2016-07-25,0.68, -3.62, 2.48, 1.61, 1.73, 7.59, repro,
2016-07-26,0.25, -3.76, -7.68, 1.66, 1.77, 7.79, repro,
2016-07-27,-1.22, -2.66, -8.52, 1.91, 2.08, 9.04, repro,
2016-07-28,0.14, -1.69, -22.38, 1.62, 1.74, 7.59, repro,
2016-07-29,-0.74, -3.55, -9.85, 1.63, 1.79, 7.75, repro,
2016-07-30,0.19, -1.45, -13.00, 1.65, 1.79, 7.73, repro,
2016-07-31,-1.34, -3.24, -10.11, 1.65, 1.78, 7.81, repro,
2016-08-01,0.78, -4.51, -3.74, 1.65, 1.77, 7.82, repro,
2016-08-02,-1.21, -3.30, -11.91, 1.61, 1.72, 7.56, repro,
2016-08-03,-0.36, -5.25, -11.01, 1.62, 1.73, 7.56, repro,
2016-08-04,1.20, -6.17, 1.58, 1.64, 1.75, 7.72, repro,
2016-08-05,1.93, -1.33, -1.61, 1.62, 1.73, 7.61, repro,
2016-08-06,-1.80, -2.04, -6.83, 1.63, 1.74, 7.64, repro,
2016-08-07,-0.63, -3.38, -10.25, 1.61, 1.72, 7.52, repro,
2016-08-08,-2.05, -3.21, -9.06, 1.60, 1.70, 7.45, repro,
2016-08-09,1.01, -2.03, -16.73, 1.64, 1.76, 7.70, repro,
2016-08-10,-0.28, 1.01, -17.33, 1.62, 1.74, 7.62, repro,
2016-08-11,2.37, -1.12, -16.10, 1.62, 1.75, 7.62, repro,
2016-08-12,-0.95, -1.23, -5.90, 1.64, 1.73, 7.61, repro,
2016-08-13,0.86, -2.30, -14.98, 1.63, 1.73, 7.61, repro,
2016-08-14,-0.59, -2.97, -11.57, 1.67, 1.73, 7.63, repro,
2016-08-15,-1.61, -3.95, -8.97, 1.68, 1.78, 7.78, repro,
2016-08-16,-0.53, -0.67, -12.04, 1.65, 1.76, 7.70, repro,
2016-08-17,0.51, -1.97, -5.80, 1.61, 1.75, 7.54, repro,
2016-08-18,-0.94, -4.78, -11.74, 1.63, 1.74, 7.62, repro,
2016-08-19,-1.33, -5.65, -6.55, 1.66, 1.77, 7.63, repro,
2016-08-20,-0.42, -2.04, -7.88, 1.62, 1.73, 7.57, repro,
2016-08-21,-0.73, -1.01, -4.56, 1.61, 1.74, 7.57, repro,
2016-08-22,-0.67, -1.69, -15.74, 1.60, 1.73, 7.50, repro,
2016-08-23,-1.37, -3.05, -7.05, 1.70, 1.76, 8.09, repro,
2016-08-24,-0.34, -3.12, -4.05, 1.69, 1.87, 7.97, repro,
2016-08-25,-0.40, -1.78, -15.05, 1.71, 1.83, 8.06, repro,
2016-08-26,-2.25, -2.73, -17.10, 1.68, 1.77, 7.98, repro,
2016-08-27,-0.50, -2.72, -7.57, 1.60, 1.76, 7.62, repro,
2016-08-28,0.45, -1.04, -14.35, 1.60, 1.73, 7.53, repro,
2016-08-29,-0.31, -1.64, -15.52, 1.66, 1.75, 7.85, repro,
2016-08-30,-0.89, -3.34, -9.00, 1.59, 1.72, 7.44, repro,
2016-08-31,-2.46, -1.79, -7.69, 1.61, 1.74, 7.53, repro,
2016-09-01,-0.45, -2.02, -6.63, 1.62, 1.74, 7.57, repro,
2016-09-02,-0.84, -4.48, -9.35, 1.67, 1.82, 7.89, repro,
2016-09-03,0.15, -3.43, -9.52, 1.64, 1.77, 7.69, repro,
2016-09-04,-0.46, -1.98, -2.05, 1.62, 1.73, 7.49, repro,
2016-09-05,0.71, -1.78, -9.01, 1.62, 1.76, 7.56, repro,
2016-09-06,-1.98, -2.79, -0.87, 1.63, 1.76, 7.70, repro,
2016-09-07,-1.65, -3.20, -5.05, 1.68, 1.81, 7.87, repro,
2016-09-08,-0.34, -2.82, 0.35, 1.69, 1.89, 8.00, repro,
2016-09-09,0.05, -1.29, -6.16, 1.68, 1.81, 7.77, repro,
2016-09-10,1.41, -1.52, -15.96, 1.63, 1.79, 7.62, repro,
2016-09-11,-1.25, -2.03, -13.39, 1.63, 1.75, 7.63, repro,
2016-09-12,1.76, -3.28, -2.94, 1.67, 1.75, 7.83, repro,
2016-09-13,-1.40, -2.64, -10.18, 1.61, 1.74, 7.51, repro,
2016-09-14,-3.86, -3.51, -14.48, 1.66, 1.76, 7.79, repro,
2016-09-15,1.85, -3.08, -11.63, 1.69, 1.83, 7.94, repro,
2016-09-16,-0.32, -2.25, -11.04, 1.66, 1.83, 7.81, repro,
2016-09-17,-0.04, -1.76, -7.48, 1.73, 1.82, 8.03, repro,
2016-09-18,-1.71, -3.21, -11.29, 1.61, 1.75, 7.50, repro,
2016-09-19,-1.84, -1.84, -12.49, 1.63, 1.75, 7.57, repro,
2016-09-20,0.01, -1.31, -14.45, 1.65, 1.75, 7.53, repro,
2016-09-21,1.19, -3.04, -7.08, 1.60, 1.73, 7.48, repro,
2016-09-22,-0.67, -3.70, -12.33, 1.65, 1.77, 7.62, repro,
2016-09-23,-2.04, -3.10, -11.90, 1.67, 1.78, 7.70, repro,
2016-09-24,-0.80, -2.60, -12.39, 1.61, 1.70, 7.41, repro,
2016-09-25,-0.03, -2.07, -6.11, 1.66, 1.78, 7.66, repro,
2016-09-26,0.36, -3.05, -9.52, 1.61, 1.75, 7.57, repro,
2016-09-27,-2.35, -1.81, -16.19, 1.70, 1.86, 7.93, repro,
2016-09-28,-1.13, -2.11, -2.15, 1.73, 1.90, 8.27, repro,
2016-09-29,-1.93, -4.35, -16.36, 1.67, 1.77, 7.75, repro,
2016-09-30,-2.08, -4.29, -4.61, 1.71, 1.80, 8.04, repro,
2016-10-01,-2.21, 0.85, -15.33, 1.71, 1.86, 8.17, repro,
2016-10-02,-1.16, 0.10, -14.23, 1.65, 1.81, 7.68, repro,
2016-10-03,-0.88, -2.99, -12.41, 1.63, 1.73, 7.55, repro,
2016-10-04,-0.49, -2.00, -8.52, 1.60, 1.70, 7.43, repro,
2016-10-05,0.73, -1.43, -8.75, 1.60, 1.71, 7.42, repro,
2016-10-06,-1.48, -1.96, -13.83, 1.59, 1.69, 7.33, repro,
2016-10-07,-2.53, -1.66, -14.49, 1.62, 1.73, 7.51, repro,
2016-10-08,-1.86, -1.60, -9.93, 1.59, 1.69, 7.32, repro,
2016-10-09,-2.04, -2.21, -10.16, 1.58, 1.69, 7.30, repro,
2016-10-10,-1.04, -2.71, -12.49, 1.61, 1.72, 7.50, repro,
2016-11-26,-1.68, -1.34, -8.31, 1.67, 1.72, 7.75, repro,
2016-11-27,-1.82, -3.50, -12.66, 1.71, 1.77, 7.77, repro,
2016-11-28,-1.66, -2.65, -12.03, 1.68, 1.75, 7.76, repro,
2016-11-29,-1.68, -3.20, -10.95, 1.64, 1.74, 7.54, repro,
2016-11-30,0.31, -2.11, -13.86, 1.68, 1.80, 7.82, repro,
2016-12-01,-3.57, -1.22, -11.71, 1.72, 1.85, 8.16, repro,
2016-12-02,-1.65, -0.93, -9.32, 1.65, 1.74, 7.68, repro,
2016-12-03,-2.05, -2.33, -10.46, 1.62, 1.76, 7.43, repro,
2016-12-04,-2.45, -2.98, -0.69, 1.87, 1.93, 8.46, repro,
2016-12-05,-1.75, -2.72, -2.00, 1.61, 1.72, 7.39, repro,
2016-12-06,-0.43, -2.70, -6.63, 1.61, 1.73, 7.44, repro,
2016-12-07,-2.78, -1.96, 3.97, 1.61, 1.72, 7.42, repro,
2016-12-08,-1.96, -1.02, -6.34, 1.59, 1.72, 7.35, repro,
2016-12-09,-2.57, -0.61, -10.81, 1.63, 1.77, 7.48, repro,
2016-12-10,-2.47, -1.57, -13.48, 1.61, 1.73, 7.46, repro,
2016-12-11,-3.11, -3.43, -6.37, 1.69, 1.84, 7.81, repro,
2016-12-12,-2.81, -4.60, -12.06, 1.62, 1.74, 7.52, repro,
2016-12-13,-2.41, -1.10, -10.34, 1.63, 1.74, 7.59, repro,
2016-12-14,-2.35, -1.90, -6.38, 1.62, 1.72, 7.47, repro,
2016-12-15,-1.44, -2.75, -12.16, 1.61, 1.74, 7.51, repro,
2016-12-16,-2.17, -0.72, -14.92, 1.60, 1.69, 7.34, repro,
2016-12-17,-2.68, -0.64, 1.40, 1.67, 1.75, 7.68, repro,
2016-12-18,-1.63, -1.07, -14.98, 1.62, 1.72, 7.53, repro,
2016-12-19,-2.19, -1.53, -9.36, 1.90, 2.10, 8.88, repro,
2016-12-20,-1.14, 0.47, -13.00, 1.66, 1.83, 7.87, repro,
2016-12-21,-1.66, 0.13, -15.85, 1.62, 1.73, 7.62, repro,
2016-12-22,-4.41, 1.32, -10.78, 1.62, 1.71, 7.48, repro,
2016-12-23,0.92, -0.04, -15.56, 1.61, 1.70, 7.43, repro,
2016-12-24,-1.59, -2.48, -7.36, 1.63, 1.74, 7.63, repro,
2016-12-25,-0.55, -0.87, -20.39, 1.65, 1.74, 7.80, repro,
2016-12-26,-3.17, -1.53, -24.55, 1.65, 1.80, 7.79, repro,
2016-12-27,-2.18, -0.05, -14.00, 1.75, 1.92, 8.23, repro,
2016-12-28,-0.65, -2.09, -13.71, 1.62, 1.74, 7.56, repro,
2016-12-29,-1.02, -1.01, -11.33, 1.59, 1.69, 7.32, repro,
2016-12-30,-0.94, -0.63, -12.89, 1.58, 1.69, 7.32, repro,
2016-12-31,1.28, -1.37, -10.30, 1.61, 1.70, 7.54, repro,
2017-01-01,-0.03, -2.38, -9.79, 1.60, 1.69, 7.36, repro,
2017-01-02,-1.96, -10.77, 23.46, 3.87, 5.02, 19.83, repro,
2017-01-03,-2.01, -2.91, -10.40, 1.61, 1.71, 7.46, repro,
2017-01-04,-1.12, -1.92, -1.85, 1.60, 1.69, 7.37, repro,
2017-01-05,-3.06, 0.20, -8.29, 1.59, 1.69, 7.33, repro,
2017-01-06,-1.27, 0.37, -20.63, 1.60, 1.70, 7.39, repro,
2017-01-07,-3.49, -0.70, -20.80, 1.59, 1.70, 7.37, repro,
2017-01-08,-1.54, -1.80, -17.48, 1.61, 1.70, 7.40, repro,
2017-01-09,0.15, -2.24, -6.39, 1.68, 1.79, 7.87, repro,
2017-01-12,-0.13, -3.12, -7.69, 2.68, 2.87, 12.34, repro,
2017-01-13,-0.63, -0.61, -11.66, 1.63, 1.76, 7.59, repro,
2017-01-14,-2.54, -1.30, -10.36, 1.69, 1.78, 7.83, repro,
2017-01-15,-0.24, -0.12, -13.37, 1.66, 1.75, 7.67, repro,
2017-01-16,-1.20, -2.41, -23.76, 1.62, 1.72, 7.51, repro,
2017-01-17,-0.06, -1.16, -3.48, 1.71, 1.79, 8.03, repro,
2017-01-18,-0.96, -1.08, -8.86, 1.64, 1.72, 7.50, repro,
2017-01-19,-0.92, -2.40, -13.37, 1.63, 1.74, 7.46, repro,
2017-01-20,-0.87, -1.61, -10.90, 1.60, 1.70, 7.37, repro,
2017-01-21,-1.11, -2.51, -14.11, 1.59, 1.68, 7.30, repro,
2017-01-22,-1.81, -2.15, -12.98, 1.60, 1.68, 7.31, repro,
2017-01-23,-1.62, -1.93, -5.04, 1.60, 1.69, 7.33, repro,
2017-01-24,0.10, -0.72, -5.43, 1.60, 1.70, 7.41, repro,
2017-01-25,-1.99, -1.02, -9.21, 1.61, 1.69, 7.38, repro,
2017-01-26,-1.77, -1.25, -7.93, 1.59, 1.69, 7.33, repro,
2017-01-27,-2.14, -1.38, -11.87, 1.58, 1.67, 7.28, repro,
2017-01-28,-0.18, 0.19, -8.72, 1.59, 1.68, 7.28, repro,
2017-01-29,0.89, -0.73, -4.46, 1.60, 1.70, 7.43, repro,
2017-01-30,-1.72, -2.06, -7.71, 1.59, 1.69, 7.36, repro,
2017-01-31,-1.36, -2.26, -13.55, 1.62, 1.72, 7.50, repro,
2017-02-01,-1.65, -1.77, -11.10, 1.59, 1.68, 7.30, repro,
2017-02-02,-1.90, -1.38, -12.91, 1.60, 1.70, 7.41, repro,
2017-02-03,-2.02, -2.47, -11.49, 1.60, 1.71, 7.38, repro,
2017-02-04,-0.51, -2.76, -2.75, 1.60, 1.73, 7.48, repro,
2017-02-05,0.37, -3.05, -20.21, 1.61, 1.72, 7.52, repro,
2017-02-06,-0.95, -2.09, -18.88, 1.59, 1.68, 7.32, repro,
2017-02-07,-1.07, -2.57, -12.85, 1.63, 1.73, 7.57, repro,
2017-02-08,-0.70, -2.37, -14.87, 1.58, 1.68, 7.27, repro,
2017-02-09,-1.81, -1.59, -12.89, 1.60, 1.69, 7.41, repro,
2017-02-10,-2.20, -2.60, -13.74, 1.64, 1.81, 7.66, repro,
2017-02-11,-2.11, 1.27, -2.83, 1.69, 1.88, 8.10, repro,
2017-02-12,-3.32, -0.97, -14.36, 1.78, 1.85, 8.32, repro,
2017-02-13,-1.65, -2.97, -16.59, 1.59, 1.67, 7.25, repro,
2017-02-14,-0.86, -2.96, -9.01, 1.59, 1.69, 7.38, repro,
2017-02-15,-1.16, -0.94, -16.06, 1.62, 1.71, 7.54, repro,
2017-02-16,-2.06, -2.12, -17.07, 1.59, 1.70, 7.40, repro,
2017-02-17,-0.05, -3.87, -13.76, 1.59, 1.69, 7.38, repro,
2017-02-18,-1.78, -2.65, -12.52, 1.62, 1.74, 7.50, repro,
2017-02-19,-1.17, -1.14, -9.85, 1.58, 1.67, 7.27, repro,
2017-02-20,-1.04, -3.00, -13.23, 1.60, 1.73, 7.45, repro,
2017-02-21,-1.65, -1.12, -15.11, 1.62, 1.77, 7.55, repro,
2017-02-22,-1.41, -2.50, -6.67, 1.59, 1.69, 7.40, repro,
2017-02-23,-2.80, -3.96, -16.14, 1.60, 1.68, 7.38, repro,
2017-02-24,-1.75, -1.89, -10.80, 1.65, 1.72, 7.67, repro,
2017-02-25,-0.26, -1.56, -8.95, 1.67, 1.85, 7.80, repro,
2017-02-26,-3.45, -0.75, -11.50, 1.64, 1.84, 7.74, repro,
2017-02-27,-0.30, -1.36, -10.23, 1.63, 1.78, 7.60, repro,
2017-02-28,-0.76, -2.47, -16.09, 1.61, 1.72, 7.51, repro,
2017-03-01,-0.59, -4.16, -18.48, 1.65, 1.76, 7.68, repro,
2017-03-02,-2.35, -1.98, -9.55, 1.60, 1.69, 7.42, repro,
2017-03-03,-0.97, -1.60, -11.49, 1.59, 1.69, 7.42, repro,
2017-03-04,-1.45, -3.13, -10.40, 1.59, 1.71, 7.42, repro,
2017-03-05,-1.61, -1.85, -11.13, 1.68, 1.75, 7.74, repro,
2017-03-06,-2.39, -5.15, -9.17, 1.66, 1.76, 7.84, repro,
2017-03-07,-1.31, -4.24, -13.57, 1.60, 1.69, 7.42, repro,
2017-03-08,-0.61, -2.48, -12.29, 1.60, 1.70, 7.43, repro,
2017-03-09,-1.81, -1.80, -4.25, 1.58, 1.68, 7.36, repro,
2017-03-10,-1.75, -2.64, -14.15, 1.59, 1.68, 7.34, repro,
2017-03-11,-4.52, -1.10, -6.47, 1.60, 1.69, 7.41, repro,
2017-03-12,-1.58, -2.88, -13.59, 1.61, 1.71, 7.45, repro,
2017-03-13,-0.65, -1.64, -9.27, 1.61, 1.69, 7.42, repro,
2017-03-14,-1.88, -3.54, -4.13, 1.60, 1.71, 7.41, repro,
2017-03-15,-2.47, -1.24, -13.56, 1.60, 1.69, 7.43, repro,
2017-03-16,-3.33, -1.57, -7.60, 1.63, 1.70, 7.53, repro,
2017-03-17,-3.93, -2.35, -16.08, 1.61, 1.70, 7.43, repro,
2017-03-18,-2.00, -1.09, -14.35, 1.61, 1.70, 7.41, repro,
2017-03-19,-1.62, -1.84, -9.62, 1.60, 1.69, 7.38, repro,
2017-03-20,1.10, -2.80, -9.89, 1.61, 1.70, 7.43, repro,
2017-03-21,-1.95, -0.58, -10.80, 1.60, 1.70, 7.48, repro,
2017-03-22,-2.52, -2.41, -6.52, 1.63, 1.71, 7.54, repro,
2017-03-23,-2.11, -0.82, -19.75, 1.66, 1.70, 7.52, repro,
2017-03-24,-1.58, -0.93, -22.33, 1.67, 1.73, 7.67, repro,
2017-03-25,-1.86, -0.65, -6.08, 1.61, 1.70, 7.46, repro,
2017-03-26,-3.35, -2.30, -12.07, 1.59, 1.70, 7.45, repro,
2017-03-27,-3.61, -1.45, -10.36, 1.62, 1.73, 7.53, repro,
2017-03-28,-2.09, -3.53, -11.54, 1.60, 1.70, 7.41, repro,
2017-03-29,-2.75, -1.90, -4.97, 1.58, 1.69, 7.37, repro,
2017-03-30,-2.52, -2.46, -1.27, 1.58, 1.69, 7.36, repro,
2017-03-31,-2.78, -3.01, -1.85, 1.59, 1.72, 7.45, repro,
2017-04-01,-3.56, -1.72, -13.34, 1.60, 1.70, 7.48, repro,
2017-04-02,-1.51, -2.60, -15.78, 1.60, 1.69, 7.43, repro,
2017-04-03,-3.56, -3.41, -9.21, 1.63, 1.72, 7.66, repro,
2017-04-04,-1.07, -2.16, -9.09, 1.59, 1.69, 7.45, repro,
2017-04-05,-2.04, -1.66, -12.05, 1.60, 1.70, 7.54, repro,
2017-04-06,-1.91, -2.15, -19.51, 1.58, 1.69, 7.43, repro,
2017-04-07,-2.77, -1.70, -11.20, 1.60, 1.72, 7.53, repro,
2017-04-08,-3.13, -3.09, -11.40, 1.59, 1.69, 7.45, repro,
2017-04-09,-0.33, -2.80, -3.02, 1.60, 1.69, 7.45, repro,
2017-04-10,-1.19, -3.45, -8.25, 1.60, 1.70, 7.48, repro,
2017-04-11,-2.06, -1.95, -13.27, 1.59, 1.69, 7.41, repro,
2017-04-12,-1.73, 1.12, -12.89, 1.59, 1.69, 7.40, repro,
2017-04-13,-3.08, -0.43, -7.37, 1.60, 1.72, 7.48, repro,
2017-04-14,-3.31, -2.70, -8.74, 1.61, 1.70, 7.49, repro,
2017-04-15,0.21, -3.71, -7.65, 1.69, 1.86, 7.85, repro,
2017-04-16,-1.76, -2.70, -13.71, 1.60, 1.69, 7.42, repro,
2017-04-17,-2.76, -1.33, -20.11, 1.60, 1.69, 7.48, repro,
2017-04-18,-2.14, -2.13, -16.93, 1.60, 1.69, 7.45, repro,
2017-04-19,-1.11, -3.49, -14.83, 1.62, 1.75, 7.60, repro,
2017-04-20,-1.63, -2.72, -7.83, 1.59, 1.68, 7.41, repro,
2017-04-21,-2.79, -2.15, 1.98, 1.59, 1.68, 7.40, repro,
2017-04-22,-1.41, -2.26, -7.62, 1.58, 1.68, 7.39, repro,
2017-04-23,-1.67, -1.37, -8.08, 1.60, 1.68, 7.41, repro,
2017-04-24,-5.10, -3.09, -17.78, 1.73, 1.88, 8.10, repro,
2017-04-25,-1.76, -2.43, -20.79, 1.72, 1.95, 8.12, repro,
2017-04-26,-3.24, -3.50, -17.74, 1.65, 1.80, 7.70, repro,
2017-04-27,0.48, -4.95, -12.90, 1.63, 1.71, 7.55, repro,
2017-04-28,-3.18, -3.24, -11.69, 1.65, 1.76, 7.69, repro,
2017-04-29,-3.80, -2.07, -19.01, 1.62, 1.74, 7.60, repro,
2017-04-30,-2.12, -2.98, -16.12, 1.61, 1.73, 7.57, repro,
2017-05-01,-1.76, -3.75, -9.42, 1.59, 1.69, 7.41, repro,
2017-05-02,-1.62, -4.06, -8.63, 1.63, 1.75, 7.55, repro,
2017-05-03,-1.42, -3.38, -8.27, 1.73, 1.87, 7.95, repro,
2017-05-04,-2.63, -3.50, -7.17, 1.63, 1.72, 7.63, repro,
2017-05-05,-3.15, -3.13, -18.95, 1.74, 1.90, 8.36, repro,
2017-05-06,-1.27, -4.84, -16.06, 1.64, 1.77, 7.74, repro,
2017-05-07,-1.38, -3.99, -23.68, 1.61, 1.70, 7.50, repro,
2017-05-08,-1.12, -2.00, -16.05, 1.59, 1.70, 7.41, repro,
2017-05-09,-3.15, -0.55, -4.37, 1.61, 1.71, 7.46, repro,
2017-05-10,-2.89, -1.21, -11.71, 1.60, 1.70, 7.45, repro,
2017-05-11,-2.26, -3.39, -9.08, 1.61, 1.71, 7.57, repro,
2017-05-12,-2.97, -2.96, -13.98, 1.59, 1.69, 7.42, repro,
2017-05-13,-0.86, -2.38, -6.12, 1.57, 1.68, 7.39, repro,
2017-05-14,-1.13, -3.04, -18.83, 1.59, 1.69, 7.40, repro,
2017-05-15,-2.43, -2.13, -10.97, 1.61, 1.76, 7.65, repro,
2017-05-16,-0.98, -0.52, -14.06, 1.66, 1.78, 7.85, repro,
2017-05-17,-1.65, -3.44, -14.99, 1.62, 1.70, 7.53, repro,
2017-05-18,-2.38, -2.54, -0.82, 1.76, 1.76, 8.27, repro,
2017-05-19,-1.08, -3.07, -3.43, 1.61, 1.75, 7.56, repro,
2017-05-20,-3.01, -2.14, -7.94, 1.63, 1.76, 7.75, repro,
2017-05-21,-1.17, -1.03, -13.64, 1.63, 1.74, 7.57, repro,
2017-05-22,-2.07, -2.59, -5.77, 1.62, 1.75, 7.62, repro,
2017-05-23,-2.30, -2.86, -7.02, 1.60, 1.71, 7.51, repro,
2017-05-24,-2.07, -1.72, -15.66, 1.60, 1.70, 7.51, repro,
2017-05-25,-3.35, -2.82, -2.21, 1.59, 1.70, 7.42, repro,
2017-05-26,-2.84, -3.66, -4.56, 1.64, 1.79, 7.72, repro,
2017-05-27,-0.82, -2.32, -8.74, 1.59, 1.69, 7.42, repro,
2017-05-28,-0.93, -1.93, -13.61, 1.62, 1.71, 7.61, repro,
2017-05-29,-3.68, -2.22, -14.39, 1.61, 1.74, 7.60, repro,
2017-05-30,-3.49, -3.18, -17.86, 1.65, 1.82, 7.90, repro,
2017-05-31,-2.23, -3.40, -16.16, 1.60, 1.68, 7.42, repro,
2017-06-01,-2.22, -2.03, -5.21, 1.60, 1.67, 7.39, repro,
2017-06-02,-2.03, -1.79, -5.32, 1.63, 1.71, 7.76, repro,
2017-06-03,-3.14, -1.89, -17.56, 1.64, 1.74, 7.76, repro,
2017-06-04,-1.87, -0.22, -12.83, 1.63, 1.74, 7.65, repro,
2017-06-05,-3.77, -3.63, -11.26, 1.59, 1.70, 7.42, repro,
2017-06-06,-2.37, -1.97, -2.29, 1.57, 1.69, 7.36, repro,
2017-06-07,-2.88, -2.18, -8.85, 1.65, 1.72, 7.83, repro,
2017-06-08,-2.41, -4.59, -11.38, 1.60, 1.71, 7.51, repro,
2017-06-09,-3.94, -4.15, -13.82, 1.62, 1.72, 7.60, repro,
2017-06-10,-1.87, -3.77, -10.05, 1.61, 1.72, 7.54, repro,
2017-06-11,-1.38, -0.70, -19.17, 1.61, 1.70, 7.45, repro,
2017-06-12,-1.21, -4.02, -5.69, 1.60, 1.71, 7.47, repro,
2017-06-13,-2.42, 0.01, -1.04, 1.63, 1.74, 7.67, repro,
2017-06-14,-3.58, -3.19, -26.55, 1.62, 1.76, 7.62, repro,
2017-06-15,-3.57, -3.31, -15.43, 1.68, 1.80, 8.00, repro,
2017-06-16,-2.28, -1.31, -4.18, 1.68, 1.80, 8.06, repro,
2017-06-17,-3.73, -1.05, 1.22, 1.61, 1.72, 7.57, repro,
2017-06-18,-2.19, -1.65, -22.48, 1.60, 1.71, 7.48, repro,
2017-06-19,-1.53, -2.37, -8.20, 1.64, 1.78, 7.73, repro,
2017-06-20,-2.44, -2.42, -11.95, 1.62, 1.73, 7.59, repro,
2017-06-21,-2.62, -0.35, -19.35, 1.62, 1.72, 7.54, repro,
2017-06-22,-1.94, -2.53, -5.35, 1.63, 1.73, 7.62, repro,
2017-06-23,-2.78, -0.37, -13.33, 1.61, 1.72, 7.56, repro,
2017-06-24,-1.48, -0.63, -5.10, 1.64, 1.73, 7.68, repro,
2017-06-25,-4.91, -4.50, -13.09, 1.67, 1.77, 7.77, repro,
2017-06-26,-1.79, -2.05, -26.70, 1.60, 1.73, 7.58, repro,
2017-06-27,-2.15, -2.61, -11.33, 1.60, 1.71, 7.45, repro,
2017-06-28,-2.89, -3.45, -13.63, 1.66, 1.78, 7.93, repro,
2017-06-29,-2.10, -1.27, -14.76, 1.61, 1.71, 7.50, repro,
2017-06-30,-2.63, -2.41, -18.93, 1.65, 1.84, 7.83, repro,
2017-07-01,-0.40, -3.67, -19.16, 1.62, 1.76, 7.65, repro,
2017-07-02,-3.24, -1.31, -11.23, 1.60, 1.70, 7.48, repro,
2017-07-03,-0.07, -2.28, -20.95, 1.60, 1.71, 7.49, repro,
2017-07-04,-1.80, -2.03, -6.24, 1.60, 1.70, 7.47, repro,
2017-07-05,-1.81, -3.05, -21.30, 1.61, 1.71, 7.54, repro,
2017-07-06,-4.55, -4.05, -18.75, 1.67, 1.78, 7.72, repro,
2017-07-07,0.04, -2.15, -23.03, 1.65, 1.79, 7.65, repro,
2017-07-08,1.09, -1.07, -14.80, 1.60, 1.72, 7.53, repro,
2017-07-09,-0.00, -1.07, -12.45, 1.62, 1.75, 7.65, repro,
2017-07-10,-2.29, -5.06, -5.46, 1.63, 1.73, 7.63, repro,
2017-07-11,-1.33, -2.28, -14.27, 1.60, 1.70, 7.51, repro,
2017-07-12,0.08, -2.21, -18.44, 1.63, 1.73, 7.61, repro,
2017-07-13,-0.11, -1.55, -17.08, 1.82, 1.93, 8.71, repro,
2017-07-14,-1.03, -2.97, -11.22, 1.63, 1.75, 7.73, repro,
2017-07-15,-5.46, -4.89, -5.95, 1.64, 1.75, 7.65, repro,
2017-07-16,-0.91, -6.21, -3.20, 1.62, 1.75, 7.68, repro,
2017-07-17,0.50, -1.47, -14.35, 1.60, 1.70, 7.52, repro,
2017-07-18,1.28, -0.04, -7.71, 1.62, 1.75, 7.70, repro,
2017-07-19,-1.69, -1.50, -19.48, 1.64, 1.75, 7.76, repro,
2017-07-20,-1.65, -3.69, -9.53, 1.59, 1.69, 7.44, repro,
2017-07-21,-0.32, -3.51, -0.33, 1.63, 1.73, 7.67, repro,
2017-07-22,-0.51, -1.96, -13.74, 1.62, 1.71, 7.60, repro,
2017-07-23,-1.48, -3.30, -5.63, 1.59, 1.73, 7.50, repro,
2017-07-24,0.25, -3.94, -1.16, 1.64, 1.78, 7.77, repro,
2017-07-25,-0.67, -2.10, -14.18, 1.61, 1.73, 7.52, repro,
2017-07-26,-0.67, -0.92, -20.37, 1.61, 1.70, 7.54, repro,
2017-07-27,-2.62, -3.56, 1.12, 1.63, 1.76, 7.60, repro,
2017-07-28,0.22, -3.52, -3.52, 1.62, 1.78, 7.56, repro,
2017-07-29,-1.30, -0.97, -14.01, 1.66, 1.78, 7.79, repro,
2017-07-30,-2.73, -4.84, -10.43, 1.62, 1.73, 7.57, repro,
2017-07-31,-3.18, -2.28, -7.16, 1.69, 1.81, 7.87, repro,
2017-08-01,-2.49, -6.46, -9.61, 1.61, 1.74, 7.57, repro,
2017-08-02,-1.66, -1.71, -14.22, 1.61, 1.71, 7.52, repro,
2017-08-03,0.63, 1.37, -23.71, 1.76, 1.91, 8.39, repro,
2017-08-04,-0.10, -2.94, -10.13, 1.65, 1.80, 7.77, repro,
2017-08-05,-2.48, -0.65, -12.25, 1.71, 1.87, 7.97, repro,
2017-08-06,-0.80, -3.91, -19.78, 1.62, 1.74, 7.70, repro,
2017-08-07,-0.07, -3.07, -21.59, 1.61, 1.73, 7.59, repro,
2017-08-08,-0.21, -1.95, -17.25, 1.74, 2.03, 8.15, repro,
2017-08-09,-1.58, -2.39, -17.30, 1.58, 1.71, 7.54, repro,
2017-08-10,-1.89, -0.57, -19.05, 1.62, 1.74, 7.59, repro,
2017-08-11,0.80, -3.33, -16.38, 1.66, 1.83, 8.05, repro,
2017-08-12,-0.59, -4.83, -24.85, 1.62, 1.74, 7.65, repro,
2017-08-13,1.26, -3.24, -16.09, 1.61, 1.71, 7.55, repro,
2017-08-14,-0.13, -2.24, -17.37, 1.67, 1.84, 7.96, repro,
2017-08-15,-1.84, -2.63, -19.74, 1.66, 1.78, 7.80, repro,
2017-08-16,0.93, -3.94, -16.06, 1.61, 1.73, 7.59, repro,
2017-08-17,-2.88, -3.11, -13.18, 1.82, 1.96, 8.71, repro,
2017-08-18,0.67, -1.86, -6.28, 1.68, 1.82, 7.99, repro,
2017-08-19,-1.07, -5.27, -24.18, 1.68, 1.77, 7.93, repro,
2017-08-20,-1.20, -5.51, -6.17, 1.68, 1.84, 8.00, repro,
2017-08-21,-3.54, -2.71, -18.08, 1.62, 1.73, 7.57, repro,
2017-08-22,-0.84, -3.56, -2.93, 1.63, 1.76, 7.67, repro,
2017-08-23,-2.04, -2.57, -6.91, 1.60, 1.73, 7.57, repro,
2017-08-24,-1.11, -0.99, -18.49, 1.62, 1.72, 7.60, repro,
2017-08-25,-2.46, -3.21, -9.81, 1.64, 1.79, 7.83, repro,
2017-08-26,1.81, -2.63, -7.30, 1.75, 1.90, 8.15, repro,
2017-08-27,-1.96, -4.93, -11.54, 1.61, 1.73, 7.59, repro,
2017-08-28,-1.50, -3.34, -11.60, 1.64, 1.75, 7.67, repro,
2017-08-29,-0.46, -1.88, -13.63, 1.62, 1.74, 7.64, repro,
2017-08-30,0.82, -2.27, -15.86, 1.81, 2.10, 8.55, repro,
2017-08-31,-0.89, -3.43, -15.86, 1.67, 1.77, 7.80, repro,
2017-09-01,0.60, -2.77, -12.29, 1.64, 1.76, 7.73, repro,
2017-09-02,0.60, -3.09, -13.36, 1.60, 1.73, 7.53, repro,
2017-09-03,-1.46, -3.78, -12.65, 1.68, 1.84, 8.10, repro,
2017-09-04,1.83, 0.43, -11.11, 1.63, 1.76, 7.60, repro,
2017-09-05,-2.78, -2.49, -14.33, 1.68, 1.75, 7.96, repro,
2017-09-06,-2.06, -1.95, 1.09, 1.65, 1.76, 7.86, repro,
2017-09-07,0.56, 0.81, -12.07, 1.75, 1.84, 8.34, repro,
2017-09-08,0.32, -0.24, -15.88, 1.68, 1.79, 7.89, repro,
2017-09-09,-2.65, -2.60, -27.59, 1.65, 1.81, 7.84, repro,
2017-09-10,-0.87, -3.25, -17.06, 1.60, 1.73, 7.57, repro,
2017-09-11,-2.17, -1.54, -16.16, 1.61, 1.72, 7.53, repro,
2017-09-12,-0.06, -1.02, -9.94, 1.67, 1.75, 7.78, repro,
2017-09-13,-2.79, -0.32, -16.27, 1.65, 1.74, 7.67, repro,
2017-09-14,0.01, 0.67, -18.38, 2.00, 2.10, 9.08, repro,
2017-09-15,173.53, -96.92, -104.94, 367.90, 248.68, 385.10, repro,
2017-09-16,-1.16, -2.13, -17.79, 3.21, 3.18, 13.80, repro,
2017-09-17,-3.33, -3.88, -11.95, 3.23, 3.18, 13.69, repro,
2017-09-18,4.13, -1.38, -3.71, 3.26, 3.19, 13.86, repro,
2017-09-19,2.91, -0.50, -4.00, 3.23, 3.20, 13.83, repro,
2017-09-20,2.55, -0.74, -7.07, 3.20, 3.19, 13.71, repro,
2017-09-21,-2.81, -5.82, -18.54, 3.36, 3.27, 14.64, repro,
2017-09-22,-1.18, -4.16, -21.12, 3.25, 3.26, 14.10, repro,
2017-09-23,-2.58, -1.00, -3.10, 3.24, 3.21, 13.99, repro,
2017-09-24,-5.79, -4.15, -4.86, 3.28, 3.23, 14.34, repro,
2017-09-25,-1.64, -6.67, -8.51, 3.19, 3.18, 13.86, repro,
2017-09-26,-4.90, -3.03, -16.14, 3.42, 3.33, 15.21, repro,
2017-09-27,-2.95, -4.41, -15.64, 3.20, 3.21, 14.00, repro,
2017-09-28,2.18, -2.14, -13.41, 3.24, 3.23, 14.04, repro,
2017-09-29,3.03, 0.22, 1.55, 3.20, 3.21, 14.13, repro,
2017-09-30,1.84, -1.97, -6.01, 3.21, 3.22, 14.05, repro,
2017-10-01,-5.05, -5.99, -1.05, 3.18, 3.18, 13.99, repro,
2017-10-02,-2.15, -5.51, -5.11, 3.17, 3.17, 13.89, repro,
2017-10-03,0.15, 2.58, -19.57, 3.28, 3.26, 14.23, repro,
2017-10-04,0.05, -0.22, -13.22, 3.25, 3.18, 14.27, repro,
2017-10-05,-0.06, -4.39, -19.63, 3.19, 3.16, 13.76, repro,
2017-10-06,-2.96, -3.53, -14.92, 3.18, 3.19, 13.82, repro,
2017-10-07,1.37, -2.57, -23.25, 3.21, 3.21, 13.86, repro,